Terminal Aerodrome Forecast
Issued by NWS

Home | Current Version | Previous Version | Graphics & Text | Print | Product List | Glossary On
Versions: 1 2 3 4 5 6 7 8 9 10 11 12 13 14 15 16 17
000
FTUS43 KFGF 040741 AAA
TAFBJI
TAF AMD
KBJI 040741Z 0408/0506 VRB06KT 2SM BR SKC
     FM041500 17007KT P6SM SKC=

USA.gov is the U.S. government's official web portal to all federal, state and local government web resources and services.